[[{"header":{"parameterUnit":"m.s-1","parameterCategory":1,"la1":30.2992,"la2":30.254,"lo1":-89.0895,"lo2":-89.0443,"dy":0.0025,"dx":0.0025,"nx":19,"ny":19,"refTime":"2026-04-28T03:00:00:Z","depth":0,"parameterNumber":2,"parameterNumberName":"U-component_of_WINDS"},"data":[0,0,0,2.5828,2.583,2.5921,2.5921,2.6041,2.6042,0,0,0,0,0,0,0,0,0,0,0,2.5805,2.5806,2.5827,2.583,2.5921,2.5921,2.6041,2.6042,0,0,0,0,0,0,0,0,0,0,0,2.5804,2.5805,2.5807,2.583,2.5921,2.5921,2.6041,2.597,0,0,0,0,0,0,0,0,0,0,2.5881,2.5864,2.5805,2.5807,2.5831,2.5921,2.5921,2.5967,2.5975,2.6002,0,2.6029,0,2.6038,2.6051,2.6051,0,0,0,2.5826,2.5858,2.5879,2.5807,2.5832,2.5921,2.5879,2.5971,2.598,2.6013,2.6031,2.6035,2.604,2.6052,2.6052,2.6226,2.6227,0,0,2.5821,2.5823,2.5873,2.5885,2.5873,2.5876,2.5882,2.5976,2.5996,2.6031,2.6038,2.6042,2.6053,2.6053,2.6225,2.6226,0,0,0,2.5809,2.5819,2.5838,2.588,2.5896,2.5879,2.5885,2.5991,2.5998,2.6039,2.6043,2.6053,2.6055,2.6224,2.6225,2.6275,0,0,0,2.5806,2.5812,2.5836,2.5838,2.5895,2.5945,2.5898,2.5991,2.6002,2.6043,2.6053,2.6056,2.6223,2.6225,2.6271,2.6297,0,0,0,2.5797,2.5811,2.5826,2.5838,2.5877,2.5944,2.5955,2.5993,2.6005,2.6051,2.6056,2.6222,2.6224,2.6268,2.6292,2.6342,0,0,0,2.5788,2.5868,2.5827,2.5918,2.5876,2.5975,2.5955,2.6028,2.6074,2.6054,2.6223,2.6225,2.6267,2.6288,2.6339,2.6384,2.6404,0,0,2.5889,2.588,2.5934,2.59,2.6006,2.5961,2.6074,2.6114,2.6116,2.6189,2.6193,2.6272,2.6291,2.6342,2.6516,2.6531,0,0,0,2.5966,2.6005,2.6033,2.6078,2.6112,2.6142,2.6166,2.618,2.6242,2.6155,2.6305,2.6316,2.6346,2.6367,2.638,2.6405,2.6236,2.6236,2.6235,2.6111,2.6111,2.6199,2.6211,2.6255,2.6279,2.6313,2.6337,2.6324,2.636,2.638,2.6486,2.6511,2.6521,2.6547,2.6406,2.6406,2.6406,2.6406,2.6258,2.6312,2.6294,2.6373,2.6373,2.6438,2.6464,2.6453,2.6513,2.647,2.6496,2.6448,2.6538,2.656,2.641,2.6409,2.6409,2.6409,2.6408,2.6351,2.6377,2.6396,2.6461,2.6511,2.6519,2.6578,2.6576,2.6573,2.6599,2.662,2.6619,2.6616,2.661,2.661,2.6611,2.6611,2.6611,2.6611,2.644,2.6459,2.651,2.6554,2.6582,2.6619,2.6645,2.6672,2.6701,2.6694,2.6695,2.6677,2.6548,2.6515,2.6617,2.6616,2.6615,2.6615,2.6614,2.6586,2.6553,2.6631,2.666,2.6711,2.676,2.6757,2.6813,2.6836,2.6864,2.6842,2.6748,2.6737,2.6727,2.6699,2.6843,2.6843,2.6843,2.6843,2.6663,2.6658,2.6738,2.6784,2.6829,2.6835,2.6921,2.6942,2.6957,2.6971,2.695,2.6914,2.6903,2.6899,2.6885,2.6858,2.7039,2.704,2.704,2.6752,2.6752,2.6827,2.6844,2.6884,2.6917,2.6998,2.705,2.7061,2.7048,2.6981,2.6972,2.6914,2.6895,2.6878,2.6856,2.6808,0,0]},{"header":{"parameterUnit":"m.s-1","parameterCategory":1,"la1":30.2992,"la2":30.254,"lo1":-89.0895,"lo2":-89.0443,"dy":0.0025,"dx":0.0025,"nx":19,"ny":19,"refTime":"2026-04-28T03:00:00:Z","depth":0,"parameterNumber":3,"parameterNumberName":"V-component_of_WINDS"},"data":[0,0,0,5.2711,5.2714,5.2854,5.2855,5.3034,5.3035,0,0,0,0,0,0,0,0,0,0,0,5.2674,5.2675,5.271,5.2714,5.2854,5.2855,5.3033,5.3035,0,0,0,0,0,0,0,0,0,0,0,5.2673,5.2675,5.2677,5.2715,5.2854,5.2855,5.3033,5.2926,0,0,0,0,0,0,0,0,0,0,5.2789,5.2761,5.2674,5.2677,5.2715,5.2854,5.2855,5.2921,5.2933,5.2972,0,5.3011,0,5.3027,5.3048,5.3048,0,0,0,5.2709,5.2751,5.2785,5.2677,5.2717,5.2854,5.279,5.2927,5.2941,5.2987,5.3014,5.302,5.303,5.3049,5.305,5.3296,5.3298,0,0,5.2702,5.27,5.2776,5.2794,5.2778,5.2785,5.2794,5.2936,5.2963,5.3015,5.3025,5.3033,5.305,5.3052,5.3295,5.3297,0,0,0,5.2682,5.2695,5.2726,5.2787,5.2813,5.2789,5.2799,5.2956,5.2967,5.3026,5.3035,5.3051,5.3054,5.3294,5.3296,5.3361,0,0,0,5.2678,5.2684,5.2722,5.2723,5.281,5.2887,5.2817,5.2957,5.2973,5.3034,5.3051,5.3055,5.3292,5.3295,5.3356,5.339,0,0,0,5.2663,5.2682,5.2705,5.2723,5.2784,5.2885,5.2904,5.296,5.2978,5.3049,5.3056,5.3291,5.3294,5.3351,5.3383,5.3452,0,0,0,5.2645,5.2761,5.2706,5.2837,5.2782,5.2927,5.2903,5.301,5.3078,5.3052,5.3293,5.3296,5.335,5.3379,5.3447,5.3507,5.3534,0,0,5.279,5.2778,5.2856,5.281,5.2964,5.2905,5.3067,5.313,5.3136,5.3241,5.3247,5.3357,5.3383,5.3451,5.3687,5.3708,0,0,0,5.29,5.2955,5.2997,5.3063,5.3116,5.3161,5.32,5.3222,5.3312,5.3192,5.3403,5.3418,5.3458,5.3486,5.3504,5.3536,5.331,5.331,5.3309,5.31,5.3104,5.3231,5.3251,5.3316,5.3354,5.3404,5.344,5.3425,5.3475,5.3504,5.3648,5.3681,5.3695,5.3728,5.354,5.354,5.354,5.3541,5.3308,5.3384,5.3362,5.3477,5.3478,5.3573,5.3613,5.3598,5.3683,5.3626,5.3662,5.3596,5.3718,5.3746,5.3546,5.3545,5.3544,5.3544,5.3543,5.3436,5.3473,5.3501,5.3595,5.3667,5.3683,5.3765,5.3764,5.3763,5.3799,5.3827,5.3826,5.3821,5.3814,5.3814,5.3815,5.3815,5.3815,5.3816,5.3555,5.3585,5.3656,5.3721,5.3762,5.3815,5.3854,5.3893,5.3934,5.3926,5.3927,5.3902,5.3731,5.3685,5.3823,5.3822,5.3821,5.382,5.382,5.3757,5.3711,5.3822,5.3863,5.3937,5.4005,5.4005,5.4083,5.4115,5.4154,5.4124,5.3999,5.3985,5.3971,5.3932,5.4126,5.4126,5.4126,5.4126,5.3861,5.3856,5.3967,5.4032,5.4096,5.4106,5.4224,5.4254,5.4277,5.4296,5.4268,5.4219,5.4205,5.4199,5.418,5.4144,5.4387,5.4388,5.4388,5.3983,5.3984,5.4087,5.4113,5.417,5.4217,5.4327,5.4398,5.4415,5.4398,5.4309,5.4298,5.4218,5.4193,5.417,5.4141,5.4075,0,0]}]]